#timestamp,LO_Frequency,Hit,StdDev 
1596363395.1,286046979.1,P
1596363396.0,286046979.1,P
1596363415.8,286046979.6,P
1596363435.7,286046977.4,Y
1596363455.5,286046998.1,P
1596363475.3,286046998.7,N
1596363495.2,286046999.1,N
1596363515.0,286046999.0,N
1596363515.9,286046999.0,N
1596363535.7,286046999.1,N
1596363555.6,286046997.2,N
1596363575.4,286046995.3,N
1596363595.3,286046995.0,N
1596363615.1,286046995.9,N
1596363616.0,286046995.9,N
1596363635.8,286046996.3,N
1596363655.7,286046995.6,N
1596363675.5,286046995.8,N
1596363695.3,286046995.9,N
1596363715.2,286046996.0,N
1596363735.0,286046993.8,N
1596363735.9,286046993.8,N
1596363755.8,286046994.1,N
1596363775.6,286046994.0,N
1596363795.4,286046993.9,N
1596363815.3,286046992.1,N
1596363835.1,286046991.9,N
1596363855.8,286046992.1,N
1596363875.7,286046992.0,N
1596363895.5,286046992.4,N
1596363915.4,286046992.8,N
1596363935.2,286046990.4,N
1596363955.0,286046990.9,N
1596363955.9,286046990.9,N
1596363975.8,286046990.8,Y
1596363995.6,286046995.1,P
1596364015.4,286046995.8,P
1596364035.3,286046994.0,P
1596364055.1,286046994.1,Y
1596364075.9,286046998.4,P
1596364095.7,286047001.2,N
1596364115.5,286046998.6,N
1596364135.4,286046999.5,N
1596364155.2,286046996.7,N
1596364175.0,286046996.9,N
1596364175.9,286046996.9,N
1596364195.8,286046997.6,N
1596364215.6,286046995.6,N
1596364235.5,286046995.0,N
1596364255.3,286046996.2,N
1596364275.1,286046995.3,N
1596364295.9,286046995.0,N
1596364315.7,286046996.2,N
1596364335.5,286046995.4,N
1596364355.4,286046996.4,N
1596364375.2,286046996.3,N
1596364395.1,286046993.8,Y
1596364396.0,286046993.8,P
1596364415.8,286046999.6,N
1596364435.6,286046997.0,N
1596364455.5,286046997.8,N
1596364475.3,286046997.0,N
1596364495.1,286046997.8,N
1596364515.9,286046995.2,N
1596364535.7,286046995.2,N
1596364555.6,286046995.3,N
1596364575.4,286046998.0,N
1596364595.2,286046995.0,Y
1596364615.1,286046999.2,P
1596364616.0,286046999.2,N
1596364635.8,286046998.8,N
1596364655.7,286046999.5,N
1596364675.5,286046996.8,Y
1596364695.3,286046997.0,P
1596364715.2,286046999.1,N
1596364735.0,286046996.9,P
1596364735.9,286046996.9,Y
1596364755.7,286047001.1,P
1596364775.6,286046998.1,N
1596364795.4,286046998.4,N
1596364815.3,286046999.3,N
1596364835.1,286046999.6,N
1596364836.0,286046999.6,N
1596364855.8,286046999.2,N
1596364875.7,286046996.5,Y
1596364895.5,286046996.9,P
1596364915.3,286046997.1,N
1596364935.2,286046999.6,N
1596364955.0,286046996.5,N
1596364955.9,286046996.5,N
1596364975.8,286046997.8,N
1596364995.6,286046997.8,N
1596365015.4,286046997.2,N
1596365035.3,286046997.7,N
1596365055.1,286046998.0,N
1596365075.9,286046995.5,Y
1596365095.7,286046998.6,P
1596365115.5,286046999.4,N
1596365135.4,286046999.4,N
1596365155.2,286046999.5,N
1596365175.0,286046997.0,Y
1596365175.9,286046997.0,P
1596365195.8,286047001.2,N
1596365215.6,286046999.4,N
1596365235.5,286046999.3,N
1596365255.3,286046996.7,N
1596365275.1,286046996.6,N
1596365295.9,286046996.9,N
1596365315.7,286046997.2,N
1596365335.5,286046997.2,N
1596365355.4,286046997.0,N
1596365375.2,286046998.0,N
1596365395.1,286046997.6,N
1596365396.0,286046997.6,N
1596365415.8,286046995.5,Y
1596365435.6,286046996.5,P
1596365455.5,286046996.6,P
1596365475.3,286046996.7,P
1596365495.2,286046997.7,Y
1596365515.9,286046998.8,P
1596365535.7,286046998.3,N
1596365555.6,286046998.7,N
1596365575.4,286046999.1,N
1596365595.2,286046997.0,Y
1596365615.1,286046999.4,P
1596365616.0,286046999.4,N
1596365635.8,286046999.1,N
1596365655.7,286046999.1,N
1596365675.5,286046998.4,Y
1596365695.3,286047000.7,P
1596365715.2,286047000.8,N
1596365735.0,286046998.7,N
1596365735.9,286046998.7,N
1596365755.7,286046998.7,N
1596365775.6,286046998.9,N
1596365795.4,286046999.0,N
1596365815.3,286046999.0,N
1596365835.1,286046999.5,N
1596365836.0,286046999.5,N
1596365855.8,286046999.1,N
1596365875.7,286046996.9,Y
1596365895.5,286046999.2,P
1596365915.3,286046999.1,P
1596365935.2,286046999.1,P
1596365955.0,286046997.3,Y
1596365955.9,286046997.3,P
1596365975.8,286046999.4,N
1596365995.6,286046998.3,N
